Dewpoint
51 52 53 55 57 58 59 61 60 60 58 56 53 52 50 49 49 49 47 46 44 46 49 49 47 48 44 39 37 38 37 43 42 42 42 42 40 37 36 38 39 39 36 44 48 48 46
47 48 50 52 54 56 57 58 59 60 59 57 54 53 50 49 49 49 46 45 46 46 48 48 47 47 42 34 36 34 37 44 45 43 40 43 41 41 39 39 37 40 39 41 45 47 46
45 45 45 47 49 51 52 56 58 58 60 58 55 53 51 49 49 49 47 44 46 48 47 48 48 45 40 37 40 37 39 44 46 47 41 43 43 43 42 37 40 38 37 41 45 45 46
42 43 44 44 45 46 49 51 55 58 60 58 55 54 51 50 49 48 45 45 46 48 47 49 47 44 38 41 39 38 39 42 46 47 43 44 44 43 43 41 39 36 38 33 43 45 45
42 42 42 43 44 44 45 48 52 54 57 59 56 54 52 50 49 48 46 47 47 48 48 48 45 42 35 40 36 39 40 38 44 46 46 46 42 41 41 36 33 35 31 33 38 43 42
43 42 42 42 42 42 43 43 47 51 52 58 55 54 52 50 49 46 46 47 47 48 44 45 44 39 36 35 39 39 40 39 41 42 38 42 42 34 37 34 26 30 31 34 34 41 40
43 43 43 42 41 41 41 42 44 47 50 55 55 54 52 50 48 46 46 43 39 38 38 35 34 35 36 38 41 37 39 37 38 38 34 35 34 31 35 36 34 31 33 34 37 42 39
42 41 42 42 42 42 41 41 42 45 49 52 56 53 52 49 47 47 44 39 36 37 28 37 37 38 40 40 35 35 41 33 33 32 35 31 31 36 38 37 35 33 32 32 36 39 37
43 43 42 42 42 42 42 41 41 43 45 50 54 53 52 49 46 45 42 41 40 39 31 36 38 37 38 39 34 34 40 36 31 31 30 29 33 37 38 36 33 33 32 33 34 38 38
43 43 42 42 41 42 42 42 40 43 45 48 52 52 51 48 44 43 40 43 40 38 27 29 36 36 38 38 31 37 41 37 31 30 32 32 37 37 36 35 36 31 35 35 36 33 31
44 43 42 44 44 44 43 42 41 40 45 48 51 52 51 48 44 41 39 40 40 37 15 30 34 41 41 34 31 32 41 37 30 31 32 32 34 34 32 34 37 35 36 36 35 34 34
43 43 42 43 42 41 43 43 41 42 45 48 50 52 51 47 45 43 41 40 37 26 16 31 35 33 35 36 37 38 37 37 36 33 35 36 38 36 35 36 37 39 36 36 36 35 28
43 43 43 42 42 41 39 41 41 42 44 47 50 51 49 47 42 44 41 37 24 21 28 28 30 35 33 35 34 34 33 30 28 26 30 33 35 37 40 35 37 38 31 27 25 25 23
44 45 44 43 44 41 39 41 41 43 43 47 49 50 48 47 44 43 40 29 19 22 27 30 32 33 30 35 33 34 31 30 34 34 31 26 23 36 38 36 34 36 28 24 20 22 21
45 46 46 44 44 41 40 45 44 42 44 46 51 48 46 46 44 42 33 20 18 23 28 32 31 29 30 32 32 32 32 29 32 35 28 28 29 37 39 39 38 33 27 27 21 21 20
45 46 44 43 43 41 42 44 42 43 45 47 46 44 44 46 45 41 29 24 26 31 33 32 26 30 27 31 30 31 32 32 33 35 35 32 28 35 37 36 35 33 31 23 22 17 15
46 44 43 42 41 42 43 43 43 44 44 46 44 39 44 45 43 37 26 25 28 34 34 31 29 30 29 30 32 30 30 32 35 34 33 32 29 31 32 32 30 30 28 27 25 24 16
47 44 40 40 40 41 42 44 43 46 47 48 42 32 45 45 34 34 28 28 33 33 35 33 33 33 29 30 30 33 30 32 34 32 31 34 30 28 30 34 36 34 30 27 19 21 21
47 43 41 40 41 42 42 46 44 47 48 44 38 38 45 44 29 30 29 31 32 33 33 33 31 32 32 28 30 32 32 35 33 32 32 32 27 24 24 27 31 31 32 30 27 25 22
46 42 40 40 40 41 45 46 48 50 49 43 39 32 38 40 37 29 30 31 31 34 33 33 31 30 31 30 32 31 33 35 35 33 35 32 28 23 17 21 28 29 30 31 27 24 22
44 42 38 39 40 41 45 45 48 51 48 43 38 33 35 31 32 32 31 33 29 31 31 31 29 29 31 30 30 31 33 34 34 34 33 30 26 25 27 31 30 29 28 30 28 27 23
43 40 39 38 40 45 44 45 50 49 50 42 35 33 34 32 34 31 33 32 30 30 30 29 28 29 29 29 30 30 33 32 31 33 31 31 28 26 25 27 27 26 27 29 29 30 29
41 39 38 38 40 43 45 47 50 50 48 40 36 36 33 32 31 29 31 32 32 32 34 31 30 31 30 31 32 32 31 33 33 31 30 30 28 25 23 24 24 21 23 26 28 30 29
40 39 38 39 42 45 45 49 49 50 44 41 36 34 32 30 30 30 32 33 32 32 32 33 34 31 35 36 34 31 31 32 32 32 32 29 29 27 25 23 17 21 24 26 26 27 30
40 38 39 40 44 46 49 51 49 49 44 39 36 31 30 30 30 31 32 33 35 35 34 33 33 35 37 32 28 27 27 27 29 30 33 33 31 27 24 23 22 24 23 21 24 26 31
38 38 39 40 44 48 51 50 49 49 43 36 35 36 29 28 26 27 33 33 32 32 32 33 37 39 36 31 27 25 23 25 26 28 33 33 31 26 25 22 16 20 26 26 23 19 32
39 39 40 41 46 48 50 49 48 46 40 35 35 36 27 26 28 28 31 31 32 31 31 33 35 35 33 29 26 23 22 26 24 25 26 30 31 27 25 24 23 25 26 25 18 18 31
40 40 41 46 48 49 51 49 49 43 37 34 32 34 29 28 29 30 29 26 30 31 31 32 31 31 30 26 25 26 25 26 26 26 27 25 26 26 27 25 18 27 25 21 23 31 32
40 40 45 49 50 51 50 48 49 43 39 34 28 32 33 29 29 31 31 31 31 30 32 31 29 31 30 27 27 28 26 25 23 22 27 24 25 24 25 23 27 30 28 32 32 32 33
Wind_Speed
26 28 28 27 27 28 28 27 24 20 20 15 14 14 13 12 14 13 9 10 12 13 10 10 9 9 3 2 9 9 10 7 2 10 8 9 10 12 11 8 13 19 18 11 13 9 10
25 26 27 28 27 28 29 28 29 22 20 16 12 16 14 12 13 12 10 10 12 12 9 10 8 4 1 7 6 8 5 3 8 12 13 6 6 8 8 9 20 4 16 25 11 13 9
24 25 26 27 29 30 31 31 29 33 20 18 13 15 13 13 14 11 11 9 9 10 9 9 8 1 4 13 5 10 7 3 16 12 10 10 8 7 2 8 6 14 20 8 13 9 5
26 26 27 26 27 29 30 30 33 29 22 17 14 14 12 12 12 14 11 9 8 8 9 9 4 3 6 7 9 9 10 3 11 11 7 9 9 7 6 4 5 10 4 14 6 8 2
24 25 26 28 28 29 30 30 30 32 33 19 15 13 11 11 12 14 11 9 6 8 8 6 1 2 9 9 4 10 5 7 10 8 5 4 7 6 5 5 7 6 4 7 4 13 3
26 26 26 28 28 30 31 32 32 32 38 24 15 13 11 9 11 13 10 9 3 4 5 3 2 3 5 7 6 8 7 5 3 9 9 5 5 2 4 7 13 10 9 7 4 11 12
28 29 28 28 28 30 30 32 32 32 31 35 16 13 10 8 10 9 6 2 5 0 3 5 2 4 3 9 4 6 6 10 2 2 6 2 4 1 6 2 3 12 11 8 8 15 13
30 30 30 30 30 29 30 30 31 34 32 29 17 14 10 7 9 6 4 4 4 2 5 8 6 3 2 2 4 9 10 5 4 2 4 7 5 4 3 3 6 14 14 6 9 16 7
33 33 32 32 32 30 28 29 32 30 33 29 22 15 11 7 6 3 7 5 5 5 2 3 3 3 2 0 2 4 7 4 4 5 2 7 3 7 2 2 7 6 15 10 8 11 5
37 36 35 35 35 33 30 28 29 31 29 31 27 16 13 8 3 5 5 6 6 5 2 3 2 2 2 3 2 1 3 2 4 1 4 5 5 1 8 1 2 9 4 7 22 9 4
32 34 35 38 37 36 34 31 30 31 29 31 28 16 15 16 3 5 6 10 8 3 4 5 3 2 3 3 2 1 3 2 2 1 2 1 3 7 6 1 2 5 5 4 13 9 4
36 35 35 33 33 32 37 36 30 29 31 28 28 18 16 12 3 3 11 10 5 3 6 5 4 3 3 4 2 1 1 3 0 2 2 4 1 2 1 5 7 7 13 15 9 3 4
36 37 36 35 34 32 31 33 32 28 30 25 33 21 16 7 7 12 11 5 7 4 1 4 5 4 2 3 2 3 3 1 1 3 2 6 2 5 3 7 9 3 4 5 2 3 2
39 38 39 36 34 34 32 31 32 29 29 23 35 20 15 11 9 16 6 5 3 4 6 2 5 5 4 5 1 3 4 2 4 1 3 4 2 3 1 2 4 3 1 5 4 5 4
39 39 36 23 33 32 29 25 33 28 31 22 15 11 5 6 12 8 4 5 5 8 7 9 5 4 3 4 3 1 3 3 5 9 3 5 1 4 3 1 2 2 5 1 7 3 3
39 38 36 31 29 30 29 23 28 30 28 15 6 8 7 11 9 6 2 6 4 5 6 6 6 7 6 7 3 5 2 4 3 10 3 3 5 3 1 2 4 1 2 2 4 4 3
40 36 31 29 30 30 29 29 30 32 36 24 11 8 9 14 6 6 7 7 4 7 8 8 8 6 5 7 6 5 5 2 3 6 7 5 2 0 1 4 3 4 2 4 3 2 1
36 34 29 30 30 28 28 30 40 43 45 28 13 7 14 14 11 5 7 7 3 7 5 6 5 5 10 8 5 4 5 4 4 4 6 4 5 5 2 1 1 1 2 3 2 2 3
34 33 30 30 27 28 31 30 38 35 19 15 15 5 3 3 9 10 4 2 5 7 8 6 6 4 3 7 5 2 3 3 2 2 2 2 3 6 2 1 1 3 3 3 6 3 1
32 29 28 27 26 26 29 32 35 12 38 16 9 9 4 7 2 9 8 5 8 7 7 4 4 3 5 5 5 5 3 1 3 3 5 4 3 3 5 3 4 4 6 6 5 2 4
29 25 27 26 27 27 30 33 42 32 37 8 5 6 8 15 18 8 10 5 13 7 3 7 2 5 6 6 6 5 2 2 4 3 2 2 3 2 4 4 2 1 2 8 10 5 4
26 22 25 27 28 27 32 31 15 53 26 5 10 7 5 5 18 14 9 6 16 5 7 8 7 6 5 7 5 9 9 5 5 1 2 3 2 1 3 5 6 3 2 2 5 5 9
23 22 24 25 28 29 32 31 27 38 9 4 3 1 8 10 13 17 10 7 14 11 4 5 9 8 8 7 8 8 3 7 6 8 4 3 6 3 3 3 4 7 7 9 5 5 7
23 20 22 24 23 28 34 37 49 41 11 4 3 3 6 7 11 19 14 10 17 7 8 3 5 8 4 7 7 8 13 13 9 6 3 7 5 3 2 2 3 2 2 2 5 4 7
21 21 23 25 28 34 35 28 45 23 11 5 2 1 4 9 5 15 13 8 14 11 7 6 4 1 8 4 6 5 4 3 5 8 4 2 6 4 2 2 6 3 2 3 4 1 2
19 21 25 27 28 32 22 34 38 20 12 4 2 3 4 14 3 1 10 14 13 7 4 4 4 2 3 4 4 4 5 3 3 2 6 7 7 3 2 1 5 2 2 1 2 6 2
20 24 28 29 30 29 30 34 35 19 7 4 5 7 8 10 6 4 5 11 6 8 8 4 2 2 4 4 4 3 4 4 5 6 5 5 3 5 5 5 7 8 3 1 3 3 5
23 28 31 32 31 24 31 35 30 19 7 6 4 10 6 7 9 6 4 4 5 5 10 7 6 0 3 4 4 4 4 7 4 5 6 9 8 5 4 3 9 0 3 3 2 3 5
26 29 33 28 6 21 32 32 29 16 9 9 6 6 12 13 6 2 10 10 5 1 8 3 2 4 4 5 2 4 3 3 6 5 2 5 7 6 10 7 1 2 1 3 2 3 2
Wind_Direction
347 344 340 340 339 339 343 331 297 249 255 255 265 273 277 285 295 296 299 304 297 286 307 317 314 341 12 323 257 263 288 247 61 8 306 239 231 223 216 222 232 225 201 241 156 87 33
339 337 337 338 336 336 335 335 337 293 252 251 253 265 270 276 284 290 297 301 297 290 308 306 316 8 87 281 244 270 287 147 321 291 261 231 248 221 243 241 197 246 204 243 159 80 47
341 340 337 335 333 337 335 332 331 341 249 249 241 257 266 276 284 288 294 290 291 297 304 296 312 43 275 256 255 304 316 186 291 242 209 240 217 246 266 221 185 246 217 308 216 142 51
334 335 333 333 332 333 332 337 331 332 290 243 238 251 263 272 281 286 294 288 293 302 291 285 298 110 258 250 269 309 318 271 342 160 202 263 204 297 259 302 135 166 138 189 215 158 54
329 330 330 331 332 332 335 333 331 326 329 234 232 240 250 266 278 287 288 282 283 292 274 280 217 147 275 298 320 317 324 331 54 86 234 321 190 239 232 181 129 169 133 190 306 189 87
327 327 327 328 329 331 333 332 330 335 336 298 218 231 239 256 271 287 278 281 272 301 280 219 200 316 266 308 307 319 319 330 120 68 1 328 185 183 169 178 179 164 180 138 234 122 129
326 326 328 328 327 327 328 327 329 327 338 331 214 220 224 235 266 276 272 156 91 357 229 223 250 260 301 309 282 352 347 339 117 210 204 269 90 32 68 71 226 160 134 153 126 138 152
322 324 325 324 323 323 324 323 326 327 326 314 230 204 210 224 267 266 241 194 148 138 276 237 256 252 279 269 13 352 0 24 28 19 349 39 40 31 330 32 127 161 151 152 141 136 102
320 318 320 319 319 319 318 320 321 320 330 325 289 199 194 214 243 218 236 182 134 127 267 276 220 244 237 248 88 330 9 5 10 33 59 100 311 317 192 38 152 137 154 156 135 147 79
316 315 316 315 315 316 316 318 321 319 322 318 313 201 177 183 194 188 229 184 134 115 352 219 228 225 152 157 52 348 12 64 9 41 336 55 334 195 126 45 12 125 86 101 137 122 156
305 305 307 311 314 315 314 314 318 314 319 314 327 203 181 180 161 193 184 147 124 83 282 155 180 126 190 101 152 355 347 18 85 292 335 58 23 127 136 247 289 94 46 120 130 109 129
303 301 298 297 296 302 306 310 314 310 314 308 330 205 186 201 242 227 155 136 98 51 257 174 146 194 210 135 55 44 39 56 205 335 322 119 222 20 18 108 111 29 108 93 97 107 179
302 298 294 295 293 293 295 296 304 303 307 309 325 200 182 186 203 168 166 133 84 214 39 202 204 182 207 114 143 202 172 137 100 101 53 86 348 335 343 109 70 331 198 115 134 136 197
298 292 292 298 286 288 293 299 297 296 303 304 316 184 193 217 171 157 190 96 182 205 196 169 154 141 139 139 46 211 143 184 229 190 93 110 245 274 18 36 164 211 152 130 128 145 152
301 293 296 288 275 282 288 286 289 293 293 297 263 175 206 229 173 165 198 136 211 206 182 160 121 160 173 130 180 180 199 206 207 201 119 130 80 313 183 138 158 224 69 74 104 35 100
302 299 295 295 287 286 285 285 285 288 282 263 207 196 193 174 178 175 231 165 211 217 158 147 168 186 158 157 174 186 212 216 176 193 219 151 103 350 337 166 190 95 121 56 38 148 196
300 301 297 292 289 286 283 277 286 290 274 269 193 180 168 171 160 211 206 170 242 241 169 169 199 172 167 158 162 192 215 262 192 168 175 150 103 105 315 25 102 77 344 59 101 61 139
302 297 294 294 296 293 291 288 282 276 260 243 161 178 166 162 168 206 187 154 225 191 188 200 172 198 161 151 157 191 198 244 210 173 152 174 112 114 137 187 6 35 183 148 155 192 85
301 298 297 299 298 299 296 290 292 285 180 147 147 140 149 208 182 190 136 116 233 171 181 182 184 203 152 149 123 124 144 339 213 78 130 169 58 114 98 56 324 199 186 121 108 112 123
302 300 301 301 298 297 295 299 294 245 170 136 141 139 138 204 259 170 135 188 192 183 166 179 182 158 134 122 89 159 132 36 14 85 72 106 104 163 187 149 148 180 186 157 126 163 177
300 302 304 304 302 310 310 315 327 157 161 118 134 163 176 178 200 171 152 178 180 157 189 186 157 183 154 130 112 123 103 69 35 15 72 85 107 66 64 87 107 76 208 194 206 167 194
305 308 308 307 312 313 318 320 330 154 153 100 146 163 125 152 161 166 159 205 180 153 154 186 175 169 168 142 143 173 146 159 180 79 88 48 133 61 40 15 23 333 296 228 224 216 251
307 315 307 309 311 324 311 304 171 176 113 113 185 257 110 133 154 169 188 186 184 138 64 154 159 128 126 126 111 111 111 146 157 156 137 114 144 141 188 356 333 286 260 227 200 204 222
313 311 305 308 314 307 300 298 174 178 107 120 225 151 115 152 159 182 172 200 164 152 137 91 115 124 150 125 109 80 64 76 79 58 126 136 121 82 124 44 241 244 241 200 208 262 232
313 314 313 317 323 309 308 167 161 113 99 85 338 248 122 118 150 179 172 154 107 83 85 96 38 59 137 100 88 78 20 47 44 44 45 107 123 107 114 193 293 287 183 193 187 196 312
319 319 320 323 316 315 159 155 169 123 107 103 36 318 96 120 81 359 129 147 137 121 75 68 35 69 76 87 103 147 173 185 200 91 51 86 106 92 132 223 226 237 209 30 76 251 182
331 325 322 318 314 317 162 165 167 124 122 135 46 358 82 100 16 9 125 143 124 107 112 123 143 90 31 99 112 148 176 172 174 178 178 132 88 182 200 244 279 243 210 175 196 255 154
332 325 319 312 304 294 171 158 160 124 116 89 47 13 94 93 37 15 31 104 108 118 142 156 123 50 93 129 150 179 159 190 149 170 176 173 171 183 162 236 264 170 103 212 263 113 133
327 324 319 309 166 129 143 148 152 136 95 82 77 4 55 79 117 73 77 58 38 74 126 71 130 134 151 123 160 135 147 160 159 191 164 194 187 188 191 214 310 357 142 43 63 96 42